Simultaneous Nadir Overpasses (SNOs) Predictions

Prediction of SNOs between AURA and NPP Satellite Orbit:

Table of predicted SNOs for the next 14.0 days since TLE Epoch: 11/23/2014
Index Date (AURA) Time (AURA) Lat,Lon (AURA) SZA (AURA ) Date (NPP) Time (NPP) Lat,Lon (NPP) SZA (NPP ) Distance(km) Time Diff (sec)
1 11/24/2014 14:13:00 -77.22, 32.09 65.24 11/24/2014 14:12:37 -77.23, 32.18 65.25 2.42 23
2 11/24/2014 15:02:09 77.95,-157.21 113.96 11/24/2014 15:03:04 77.95,-157.14 113.89 1.56 55
3 11/27/2014 05:40:12 76.41, -22.53 116.16 11/27/2014 05:39:03 76.41, -22.59 116.24 1.82 69
4 11/27/2014 06:29:17 -77.49, 149.08 65.00 11/27/2014 06:29:24 -77.49, 149.11 65.01 1.01 7
5 11/29/2014 21:56:23 76.90, 95.10 116.14 11/29/2014 21:55:45 76.90, 95.05 116.18 1.25 38
6 11/29/2014 22:45:30 -77.86, -93.40 64.92 11/29/2014 22:46:08 -77.87, -93.33 64.97 1.80 38
7 12/02/2014 14:12:29 77.50,-146.67 115.95 12/02/2014 14:12:23 77.50,-146.61 115.94 1.51 6
8 12/02/2014 15:01:45 -78.04, 23.30 64.66 12/02/2014 15:02:56 -78.03, 23.25 64.71 1.21 71
9 12/05/2014 05:39:34 -76.97, 159.55 63.07 12/05/2014 05:38:44 -76.98, 159.57 63.03 0.36 50




NCC Satellite Simultaneous Nadir Overpasses (SNOs) Prediction Service
